Regional Weather Roundup
Issued by NWS

Home | Current Version | Previous Version | Text Only | Print | Product List | Glossary Off
Versions: 1 2 3 4 5 6 7 8 9 10 11 12 13 14 15 16 17 18 19 20 21 22 23 24 25 26 27 28 29 30 31 32 33 34 35 36 37 38 39 40 41 42 43 44 45 46 47 48 49 50

000
ASUS43 KIND 252359
RWRIN

WEATHER ROUNDUP FOR INDIANA
NATIONAL WEATHER SERVICE INDIANAPOLIS IN
800 PM EDT SAT APR 25 2015

NOTE: "FAIR" INDICATES FEW OR NO CLOUDS BELOW 12,000 FEET WITH NO
SIGNIFICANT WEATHER AND/OR OBSTRUCTIONS TO VISIBILITY.

* - STATION DOES NOT REPORT WEATHER SUCH AS PRECIPITATION OR FOG.

+ - STATION NOT QUALITY CONTROLLED BY THE NATIONAL WEATHER SERVICE.
    USE DATA WITH CAUTION...ESPECIALLY DEWPOINT AND RELATIVE
    HUMIDITY OBSERVATIONS.

INZ001>003-010>013-019-020-260100-
NORTHWEST INDIANA

CITY           SKY/WX    TMP DP  RH WIND       PRES   REMARKS
GARY /AIRPORT/ LGT RAIN  45  39  81 NE9       29.80R
KNOX *+        CLOUDY    45  32  61 NE9       29.76R

$$

LMZ046-743>745-260100-
SOUTHERN LAKE MICHIGAN

STATION/POSITION TIME  TEMP    WIND        PRES    WAVE
                       AIR SEA DIR/SP/G            HT
                 (UTC) (F)     (DEG/KT/KT) (MB)    (FT)
BURNS HARBOR     2300   43      10/ 12/ 14 1009.1R
MICHIGAN CITY    2300   47      40/ 11/ 13   N/A
5NW MICH CITY    2300   42 45   20/  6/ 10   N/A     2

$$

INZ004-005-014>016-021>024-260100-
NORTH CENTRAL INDIANA

CITY           SKY/WX    TMP DP  RH WIND       PRES   REMARKS
GOSHEN         LGT RAIN  44  36  73 E13G18    29.77R
6HR MIN TEMP:  44; 6HR MAX TEMP:  47; 6HR PCP:  0.12;

SOUTH BEND     CLOUDY    47  37  68 NE7       29.79R
6HR MIN TEMP:  46; 6HR MAX TEMP:  48; 6HR PCP:  0.16;

WARSAW +       LGT RAIN  43  41  93 NE7       29.77R

$$

INZ006>009-017-018-025>027-260100-
NORTHEAST INDIANA

CITY           SKY/WX    TMP DP  RH WIND       PRES   REMARKS
ANGOLA *+      CLOUDY    43  30  61 E9        29.74F
FORT WAYNE     LGT RAIN  42  39  89 E12       29.76R
6HR MIN TEMP:  42; 6HR MAX TEMP:  46; 6HR PCP:  0.36;


$$

INZ028-029-035-036-043>045-051>053-260100-
WEST CENTRAL INDIANA

CITY           SKY/WX    TMP DP  RH WIND       PRES   REMARKS
CRAWFORDSVL +  FLURRIES  44  39  83 NE15      29.63S
6HR MIN TEMP:  44; 6HR MAX TEMP:  46; 6HR PCP:  0.06;

GREENCASTLE +  LGT RAIN  45  41  87 NE14      29.60R
LAFAYETTE      CLOUDY    46  41  82 NE16G24   29.69R
6HR MIN TEMP:  44; 6HR MAX TEMP:  46; 6HR PCP:  0.21;

TERRE HAUTE    CLOUDY    48  45  89 NE12      29.60R
6HR MIN TEMP:  48; 6HR MAX TEMP:  51; 6HR PCP:  0.05;


$$

INZ030>032-037>040-046>048-054>057-064-065-260100-
CENTRAL INDIANA

CITY           SKY/WX    TMP DP  RH WIND       PRES   REMARKS
COLUMBUS       CLOUDY    46  41  81 NE12G17   29.60F
FRANKFORT +    CLOUDY    45  45 100 NE18      29.69R
6HR MIN TEMP:  44; 6HR MAX TEMP:  47; 6HR PCP:  0.32;

INDIANAPOLIS   LGT RAIN  47  42  83 E12       29.62R
6HR MIN TEMP:  45; 6HR MAX TEMP:  47; 6HR PCP:  0.16;

-EAGLE CREEK   CLOUDY    46  42  86 NE14G21   29.62F
6HR MIN TEMP:  44; 6HR MAX TEMP:  46; 6HR PCP:  0.17;

KOKOMO *+      CLOUDY    45  39  81 E17       29.71R
6HR MIN TEMP:  43; 6HR MAX TEMP:  46; 6HR PCP:  0.20;

MT COMFORT *+  CLOUDY    46  46 100 E14       29.65R
SHELBYVILLE    CLOUDY    48  43  82 E15       29.61F
6HR MIN TEMP:  46; 6HR MAX TEMP:  49; 6HR PCP:  0.40;


$$

INZ033-034-041-042-049-050-058-059-260100-
EAST CENTRAL INDIANA

CITY           SKY/WX    TMP DP  RH WIND       PRES   REMARKS
MUNCIE         CLOUDY    45  41  86 E15       29.68R
6HR MIN TEMP:  42; 6HR MAX TEMP:  45; 6HR PCP:  0.48;


$$

INZ060-061-067>069-081>083-085>088-260100-
SOUTHWEST INDIANA

CITY           SKY/WX    TMP DP  RH WIND       PRES   REMARKS
EVANSVILLE     LGT RAIN  60  58  92 N9        29.51R FOG
6HR MIN TEMP:  60; 6HR MAX TEMP:  74; 6HR PCP:  0.15;

HUNTINGBURG *+ CLOUDY    54  50  87 NE9       29.53S
6HR MIN TEMP:  54; 6HR MAX TEMP:  63; 6HR PCP:  0.06;


$$

INZ062-063-066-070>080-084-089>092-260100-
SOUTH CENTRAL AND SOUTHEAST INDIANA

CITY           SKY/WX    TMP DP  RH WIND       PRES   REMARKS
BLOOMINGTON    CLOUDY    47  45  93 E10       29.58R
6HR MIN TEMP:  47; 6HR MAX TEMP:  51; 6HR PCP:  0.07;

MADISON *+     CLOUDY    45  43  93 E10G17    29.60R
SEYMOUR +      CLOUDY    48  46  93 E12       29.58S

$$




USA.gov is the U.S. government's official web portal to all federal, state and local government web resources and services.